When you browse on this site, cookies collect data to enhance your experience and personalize the content and advertising you see.
Visit our Privacy Policy to learn more. By continuing to use the site, you agree to this use of cookies and data.
  • Em Portugal
  • Lista de países
  • Para 7 dias
  • Temperatura da água
  • Mapas de satélite
  • Mapa do tempo
  • Widgets de tempo
  • user-avatar
    Iniciar Sessão

    Previsão horária em Cofu

    Hoje, 21 Janeiro, Segunda-feira

    Tempo Temperatura Precipitação Vento Pressão Humidade
    00:00 -3°C° 0 mm 2 m/s 663 mmHg 74%
    01:00 -4°C° 0 mm 2 m/s 664 mmHg 72%
    02:00 -5°C° 0 mm 2 m/s 664 mmHg 71%
    03:00 -6°C° 0 mm 3 m/s 663 mmHg 67%
    04:00 -7°C° 0 mm 3 m/s 664 mmHg 66%
    05:00 -7°C° 0 mm 3 m/s 664 mmHg 65%
    06:00 -7°C° 0 mm 2 m/s 664 mmHg 64%
    07:00 -5°C° 0 mm 2 m/s 665 mmHg 58%
    08:00 -5°C° 0 mm 3 m/s 666 mmHg 51%
    09:00 -1°C° 0 mm 3 m/s 667 mmHg 36%
    10:00 0°C° 0 mm 3 m/s 667 mmHg 34%
    11:00 +1°C° 0 mm 3 m/s 667 mmHg 31%
    12:00 +2°C° 0 mm 3 m/s 667 mmHg 29%
    13:00 +3°C° 0 mm 2 m/s 667 mmHg 30%
    14:00 +2°C° 0 mm 2 m/s 666 mmHg 32%
    15:00 +2°C° 0 mm 2 m/s 666 mmHg 30%
    16:00 +1°C° 0 mm 2 m/s 666 mmHg 38%
    17:00 -2°C° 0 mm 2 m/s 665 mmHg 45%
    18:00 -4°C° 0 mm 2 m/s 665 mmHg 52%
    19:00 -4°C° 0 mm 2 m/s 665 mmHg 56%
    20:00 -4°C° 0 mm 2 m/s 665 mmHg 59%
    21:00 -3°C° 0 mm 2 m/s 665 mmHg 62%
    22:00 -3°C° 0.1 mm 2 m/s 665 mmHg 64%
    23:00 -3°C° 0.1 mm 2 m/s 665 mmHg 67%

    Amanhã, 22 Janeiro, Terça-feira

    Tempo Temperatura Precipitação Vento Pressão Humidade
    00:00 -3°C° 0.1 mm 2 m/s 665 mmHg 69%
    01:00 -3°C° 0 mm 2 m/s 665 mmHg 69%
    02:00 -3°C° 0 mm 2 m/s 665 mmHg 70%
    03:00 -4°C° 0 mm 2 m/s 665 mmHg 70%
    04:00 -4°C° 0.1 mm 2 m/s 665 mmHg 70%
    05:00 -4°C° 0.1 mm 2 m/s 665 mmHg 71%
    06:00 -4°C° 0.1 mm 2 m/s 665 mmHg 71%
    07:00 -3°C° 0.2 mm 2 m/s 665 mmHg 67%
    08:00 -2°C° 0.2 mm 2 m/s 666 mmHg 64%
    09:00 -1°C° 0.2 mm 3 m/s 666 mmHg 60%
    10:00 +1°C° 0 mm 3 m/s 666 mmHg 53%
    11:00 +3°C° 0 mm 2 m/s 667 mmHg 46%
    12:00 +4°C° 0 mm 2 m/s 667 mmHg 39%
    13:00 +4°C° 0 mm 2 m/s 667 mmHg 39%
    14:00 +4°C° 0 mm 2 m/s 667 mmHg 38%
    15:00 +5°C° 0 mm 1 m/s 667 mmHg 37%
    16:00 +3°C° 0 mm 1 m/s 667 mmHg 47%
    17:00 +1°C° 0 mm 1 m/s 667 mmHg 56%
    18:00 -1°C° 0 mm 1 m/s 666 mmHg 65%
    19:00 -2°C° 0 mm 1 m/s 666 mmHg 66%
    20:00 -2°C° 0 mm 1 m/s 667 mmHg 67%
    21:00 -2°C° 0 mm 1 m/s 667 mmHg 68%
    22:00 -3°C° 0 mm 1 m/s 667 mmHg 66%
    23:00 -3°C° 0 mm 1 m/s 667 mmHg 65%

    Depois de amanhã, 23 Janeiro, Quarta-feira

    Tempo Temperatura Precipitação Vento Pressão Humidade
    00:00 -3°C° 0 mm 1 m/s 667 mmHg 63%
    01:00 -3°C° 0 mm 1 m/s 667 mmHg 63%
    02:00 -3°C° 0 mm 1 m/s 667 mmHg 62%
    03:00 -3°C° 0 mm 1 m/s 667 mmHg 61%
    04:00 -3°C° 0 mm 1 m/s 667 mmHg 61%
    05:00 -3°C° 0 mm 1 m/s 667 mmHg 61%
    06:00 -3°C° 0 mm 1 m/s 666 mmHg 60%
    07:00 -1°C° 0 mm 1 m/s 667 mmHg 56%
    08:00 +1°C° 0 mm 1 m/s 668 mmHg 52%
    09:00 +3°C° 0 mm 1 m/s 668 mmHg 47%
    10:00 +3°C° 0 mm 2 m/s 668 mmHg 46%
    11:00 +4°C° 0 mm 2 m/s 668 mmHg 45%
    12:00 +4°C° 0 mm 3 m/s 667 mmHg 43%
    13:00 +4°C° 0 mm 3 m/s 667 mmHg 44%
    14:00 +3°C° 0 mm 3 m/s 666 mmHg 45%
    15:00 +3°C° 0 mm 3 m/s 665 mmHg 46%
    16:00 +2°C° 0 mm 3 m/s 665 mmHg 54%
    17:00 0°C° 0 mm 3 m/s 665 mmHg 62%
    18:00 -1°C° 0 mm 2 m/s 664 mmHg 69%
    19:00 -1°C° 0.1 mm 2 m/s 664 mmHg 71%
    20:00 -1°C° 0.1 mm 3 m/s 664 mmHg 73%
    21:00 -1°C° 0.1 mm 3 m/s 664 mmHg 75%
    22:00 -2°C° 0.1 mm 2 m/s 664 mmHg 74%
    23:00 -2°C° 0.1 mm 2 m/s 664 mmHg 74%

    24 Janeiro, Quinta-feira

    Tempo Temperatura Precipitação Vento Pressão Humidade
    00:00 -2°C° 0.1 mm 2 m/s 664 mmHg 74%
    01:00 -3°C° 0 mm 2 m/s 664 mmHg 73%
    02:00 -4°C° 0 mm 2 m/s 665 mmHg 73%
    03:00 -4°C° 0 mm 2 m/s 665 mmHg 72%
    04:00 -5°C° 0 mm 2 m/s 665 mmHg 70%
    05:00 -5°C° 0 mm 2 m/s 665 mmHg 67%
    06:00 -6°C° 0 mm 2 m/s 665 mmHg 64%
    07:00 -4°C° 0 mm 2 m/s 666 mmHg 54%
    08:00 -3°C° 0 mm 2 m/s 667 mmHg 44%
    09:00 +1°C° 0 mm 1 m/s 668 mmHg 34%
    10:00 +1°C° 0 mm 2 m/s 668 mmHg 33%
    11:00 +2°C° 0 mm 2 m/s 669 mmHg 31%
    12:00 +3°C° 0 mm 2 m/s 669 mmHg 29%
    13:00 +3°C° 0 mm 2 m/s 669 mmHg 30%
    14:00 +3°C° 0 mm 2 m/s 668 mmHg 31%
    15:00 +3°C° 0 mm 2 m/s 668 mmHg 32%
    16:00 +1°C° 0 mm 2 m/s 668 mmHg 41%
    17:00 0°C° 0 mm 1 m/s 668 mmHg 49%
    18:00 -3°C° 0 mm 1 m/s 668 mmHg 58%
    19:00 -3°C° 0 mm 1 m/s 668 mmHg 58%
    20:00 -3°C° 0 mm 1 m/s 668 mmHg 58%
    21:00 -4°C° 0 mm 1 m/s 669 mmHg 58%
    22:00 -4°C° 0 mm 1 m/s 669 mmHg 57%
    23:00 -4°C° 0 mm 1 m/s 669 mmHg 55%

    25 Janeiro, Sexta-feira

    Tempo Temperatura Precipitação Vento Pressão Humidade
    00:00 -4°C° 0 mm 1 m/s 669 mmHg 54%
    01:00 -4°C° 0 mm 1 m/s 669 mmHg 53%
    02:00 -4°C° 0 mm 1 m/s 669 mmHg 53%
    03:00 -4°C° 0 mm 1 m/s 669 mmHg 53%
    04:00 -4°C° 0 mm 1 m/s 669 mmHg 54%
    05:00 -4°C° 0 mm 1 m/s 669 mmHg 55%
    06:00 -4°C° 0 mm 1 m/s 668 mmHg 55%
    07:00 -2°C° 0 mm 1 m/s 669 mmHg 52%
    08:00 -1°C° 0 mm 1 m/s 670 mmHg 49%
    09:00 +1°C° 0 mm 1 m/s 670 mmHg 46%
    10:00 +2°C° 0 mm 1 m/s 670 mmHg 43%
    11:00 +2°C° 0 mm 2 m/s 670 mmHg 40%
    12:00 +3°C° 0 mm 2 m/s 670 mmHg 38%
    13:00 +3°C° 0 mm 2 m/s 670 mmHg 38%
    14:00 +3°C° 0 mm 2 m/s 669 mmHg 38%
    15:00 +3°C° 0 mm 2 m/s 669 mmHg 39%
    16:00 +2°C° 0 mm 1 m/s 668 mmHg 49%
    17:00 0°C° 0 mm 1 m/s 668 mmHg 60%
    18:00 -2°C° 0 mm 1 m/s 667 mmHg 70%
    19:00 -3°C° 0 mm 1 m/s 667 mmHg 72%
    20:00 -3°C° 0 mm 1 m/s 667 mmHg 74%
    21:00 -4°C° 0 mm 1 m/s 667 mmHg 76%
    22:00 -3°C° 0 mm 1 m/s 666 mmHg 73%
    23:00 -3°C° 0 mm 1 m/s 666 mmHg 71%

    26 Janeiro, Sábado

    Tempo Temperatura Precipitação Vento Pressão Humidade
    00:00 -3°C° 0 mm 1 m/s 666 mmHg 68%
    01:00 -3°C° 0.1 mm 1 m/s 665 mmHg 71%
    02:00 -2°C° 0.1 mm 1 m/s 665 mmHg 73%
    03:00 -2°C° 0.1 mm 1 m/s 665 mmHg 75%
    04:00 -2°C° 0.1 mm 1 m/s 664 mmHg 77%
    05:00 -3°C° 0.1 mm 1 m/s 664 mmHg 79%
    06:00 -3°C° 0.1 mm 1 m/s 664 mmHg 81%
    07:00 -2°C° 0.1 mm 1 m/s 664 mmHg 76%
    08:00 -3°C° 0.1 mm 2 m/s 665 mmHg 70%
    09:00 -2°C° 0.1 mm 2 m/s 665 mmHg 65%
    10:00 -1°C° 0.2 mm 2 m/s 665 mmHg 57%
    11:00 -1°C° 0.2 mm 2 m/s 665 mmHg 49%
    12:00 +1°C° 0.2 mm 2 m/s 665 mmHg 41%
    13:00 +1°C° 0.1 mm 2 m/s 665 mmHg 38%
    14:00 +1°C° 0.1 mm 2 m/s 664 mmHg 35%
    15:00 +1°C° 0.1 mm 2 m/s 664 mmHg 32%
    16:00 -2°C° 0 mm 2 m/s 664 mmHg 42%
    17:00 -4°C° 0 mm 2 m/s 664 mmHg 53%
    18:00 -6°C° 0 mm 2 m/s 664 mmHg 63%
    19:00 -6°C° 0 mm 2 m/s 664 mmHg 63%
    20:00 -6°C° 0 mm 2 m/s 665 mmHg 64%
    21:00 -7°C° 0 mm 2 m/s 665 mmHg 65%
    22:00 -7°C° 0 mm 2 m/s 665 mmHg 65%
    23:00 -7°C° 0 mm 2 m/s 665 mmHg 66%
    Mostrar mais